This is the latest recevied weather packets stored in our database for station/object KM7BEO. If no packets are shown the sender has not sent any weather packets the latest 10 day(s).
| Time | Temp. | Humidity | Pressure | Rain* | Wind** | Luminosity | Snow |
|---|---|---|---|---|---|---|---|
| 1777882283 | 13.89° C | 60% | 1008.6 hPa | 0 mm | - | 0 W/m² | - |
| 1777881980 | 13.89° C | 61% | 1008.7 hPa | 0 mm | - | 0 W/m² | - |
| 1777881677 | 13.89° C | 64% | 1008.8 hPa | 0 mm | - | 0 W/m² | - |
| 1777881374 | 13.89° C | 63% | 1008.6 hPa | 0 mm | - | 0 W/m² | - |
| 1777881070 | 13.89° C | 64% | 1008.7 hPa | 0 mm | - | 0 W/m² | - |
| 1777880769 | 13.33° C | 64% | 1008.8 hPa | 0 mm | - | 0 W/m² | - |
| 1777880467 | 13.89° C | 63% | 1008.6 hPa | 0 mm | - | 0 W/m² | - |
| 1777880164 | 13.33° C | 64% | 1008.8 hPa | 0 mm | - | 0 W/m² | - |
| 1777879863 | 13.89° C | 64% | 1008.7 hPa | 0 mm | - | 0 W/m² | - |
| 1777879560 | 13.33° C | 64% | 1008.8 hPa | 0 mm | - | 0 W/m² | - |
| 1777879257 | 12.78° C | 68% | 1008.6 hPa | 0 mm | - | 0 W/m² | - |
| 1777878954 | 13.33° C | 69% | 1008.7 hPa | 0 mm | - | 0 W/m² | - |
| 1777878651 | 13.33° C | 68% | 1008.8 hPa | 0 mm | - | 0 W/m² | - |
| 1777878349 | 13.33° C | 68% | 1008.6 hPa | 0 mm | - | 0 W/m² | - |
| 1777878044 | 13.33° C | 68% | 1008.8 hPa | 0 mm | - | 0 W/m² | - |
| 1777877740 | 13.33° C | 68% | 1008.8 hPa | 0 mm | - | 0 W/m² | - |
| 1777877438 | 13.33° C | 66% | 1008.9 hPa | 0 mm | - | 0 W/m² | - |
| 1777877135 | 13.33° C | 67% | 1008.7 hPa | 0 mm | - | 0 W/m² | - |
| 1777876832 | 13.33° C | 66% | 1008.8 hPa | 0 mm | - | 0 W/m² | - |
| 1777876530 | 13.33° C | 66% | 1008.7 hPa | 0 mm | - | 0 W/m² | - |
| 1777876227 | 13.33° C | 66% | 1008.8 hPa | 0 mm | - | 0 W/m² | - |
| 1777875923 | 13.89° C | 65% | 1008.7 hPa | 0 mm | - | 0 W/m² | - |
| 1777875619 | 14.44° C | 66% | 1008.7 hPa | 0 mm | - | 0 W/m² | - |
| 1777875315 | 14.44° C | 63% | 1008.8 hPa | 0 mm | - | 0 W/m² | - |
| 1777875013 | 14.44° C | 64% | 1008.8 hPa | 0 mm | - | 0 W/m² | - |
* Rain latest hour (hover to see other rain measurements)
** Current wind speed in m/s (hover to see current wind gust speed)